User: anonymous   Login
Location: Caltech
(34.1382°N, 118.1253°W)
Time: 02:31:13
(UTC-08:00)
Language:

IDEFIX/ARIANE 42P - Orbit

View from above orbital plane
View from above orbital plane
View from above satellite
View from above satellite

Ground track
Ground track

The orbit data is extracted from the following two-line orbital elements,

1 27422U 02021B   18051.47333773 -.00000047 +00000-0 -23411-5 0  9993
2 27422 098.2471 043.2032 0011449 216.8382 143.2015 14.29259800822146
Epoch (UTC): 20 February 2018 11:21:36
Eccentricity: 0.0011449
inclination: 98.2471°
perigee height: 786 km
apogee height: 802 km
right ascension of ascending node: 43.2032°
argument of perigee: 216.8382°
revolutions per day: 14.29259800
mean anomaly at epoch: 143.2015°
orbit number at epoch: 82214

The dashed part of the orbit path shows where the satellite is in the earth's shadow,  

DLR